User: anonymous   Login
Location: Arbon
(43.0005°N, 0.7472°E)
Time: 14:03:18
(UTC+00:00)
Language:

Cosmos 2195 Rocket - Orbit

View from above orbital plane
View from above orbital plane
View from above satellite
View from above satellite

Ground track
Ground track

The orbit data is extracted from the following two-line orbital elements,

1 22007U 92036B   20294.75627268 -.00000040 +00000-0 -55277-4 0  9997
2 22007 082.9281 110.5113 0031135 134.7761 225.5937 13.77973511351687
Epoch (UTC): 20 October 2020 18:09:01
Eccentricity: 0.0031135
inclination: 82.9281°
perigee height: 948 km
apogee height: 994 km
right ascension of ascending node: 110.5113°
argument of perigee: 134.7761°
revolutions per day: 13.77973511
mean anomaly at epoch: 225.5937°
orbit number at epoch: 35168

The dashed part of the orbit path shows where the satellite is in the earth's shadow,  

DLR